Regional Weather Roundup
Issued by NWS

Home | Current Version | Previous Version | Text Only | Print | Product List | Glossary Off
Versions: 1 2 3 4 5 6 7 8 9 10 11 12 13 14 15 16 17 18 19 20 21 22 23 24 25 26 27 28 29 30 31 32 33 34 35 36 37 38 39 40 41 42 43 44 45 46 47 48 49 50

000
ASUS43 KMKX 020059
RWRWI

WISCONSIN REGIONAL WEATHER ROUNDUP
NATIONAL WEATHER SERVICE MILWAUKEE/SULLIVAN WI
700 PM CST SUN FEB 01 2015

NOTE: "FAIR" INDICATES FEW OR NO CLOUDS BELOW 12,000 FEET WITH NO
SIGNIFICANT WEATHER AND/OR OBSTRUCTIONS TO VISIBILITY.

WIZ001-002-006>008-014>016-023>028-020200-
NORTHWEST WISCONSIN

CITY           SKY/WX    TMP DP  RH WIND       PRES   REMARKS
SUPERIOR ARPT  CLEAR      6 -11  45 N7        30.31S WCI  -6
ASHLAND        MOCLDY     7  -1  70 N9        30.28S WCI  -7
HAYWARD        MOCLDY     6  -3  66 N7        30.22S WCI  -6
SIREN          CLEAR      8  -1  66 N9        30.26S WCI  -6
CUMBERLAND     CLEAR      9  -2  61 N9        30.19S WCI  -5
RICE LAKE      CLEAR     10   0  64 N8        30.21S WCI  -3
CHETEK         CLEAR     10   0  66 N7        30.19S WCI  -2
LADYSMITH      CLOUDY    12   4  69 N14G21    30.17S WCI  -3
EAU CLAIRE     MOCLDY    11   1  64 N9        30.18R WCI  -2
MENOMONIE      PTCLDY    12   2  62 N12       30.20R WCI  -2
NEW RICHMOND   CLEAR     10   1  67 N14       30.23R WCI  -6
OSCEOLA        CLEAR     11   1  62 N9        30.28R WCI  -2
$$

WIZ003>005-009-010-017-018-020200-
NORTH CENTRAL WISCONSIN

CITY           SKY/WX    TMP DP  RH WIND       PRES   REMARKS
MANITOWISH WTR MOCLDY     4  -4  69 N5        30.13S WCI  -5
ARBOR VITAE    MOCLDY     7  -1  67 N6        30.12S WCI  -3
WOODRUFF       MOCLDY     7  -1  67 N6        30.12S WCI  -3
RHINELANDER    CLOUDY     7  -2  66 N7        30.10S WCI  -5
EAGLE RIVER    CLOUDY     6  -2  67 NE15      30.11R WCI -11
LAND O LAKES   CLOUDY     7  -1  72 NE7       30.13S WCI  -5
PHILLIPS       CLEAR      6  -3  66 N9        30.13S WCI  -8
TOMAHAWK       MOCLDY     8  -1  66 CALM      30.11F
MEDFORD        MOCLDY     9  -1  64 N13       30.10R WCI  -7
MERRILL        MOCLDY    10  -1  61 N10G16    30.11R WCI  -4
$$

WIZ029-030-035-036-043>047-020200-
CENTRAL WISCONSIN

CITY           SKY/WX    TMP DP  RH WIND       PRES   REMARKS
WAUSAU         MOCLDY    10  -2  58 N7        30.09S WCI  -1
MOSINEE        NOT AVBL
MARSHFIELD     CLOUDY    12  -1  56 N13       30.09S WCI  -3
STEVENS POINT  CLOUDY    10   0  62 N10       30.10S WCI  -3
WAUPACA        CLOUDY    14   2  59 N7G18     30.10S WCI   4
WAUTOMA        LGT SNOW  10   3  72 N8        30.10R WCI  -1
WISC RAPIDS    CLOUDY    13   1  59 N15       30.11R WCI  -3
CAMP DOUGLAS   CLOUDY    12   7  79 N12       30.10S WCI  -2
$$

WIZ011>013-019>022-031-037>040-048>050-020200-
NORTHEAST WISCONSIN

CITY           SKY/WX    TMP DP  RH WIND       PRES   REMARKS
ANTIGO         MOCLDY     8  -1  67 N16       30.08R WCI -10
SHAWANO        CLOUDY    14   2  60 NE20      30.13R WCI  -4
OCONTO         CLOUDY    10   1  65 N16G22    30.14S WCI  -7
STURGEON BAY   CLOUDY     9  -2  61 N15G24    30.12S WCI  -8
GREEN BAY      CLOUDY    10   2  69 NE20      30.11S WCI  -9
MANITOWOC      LGT SNOW   9   5  85 N17G26    30.06R VSB 1   WCI -10
APPLETON       CLOUDY    10  -2  56 NE20      30.08S WCI  -8
CLINTONVILLE   CLOUDY    12   1  62 NE13G18   30.11S WCI  -3
OSHKOSH        LGT SNOW   9  -2  61 N24G36    30.07R WCI -12
$$

WIZ032>034-041-042-053>061-020200-
SOUTHWEST WISCONSIN

CITY           SKY/WX    TMP DP  RH WIND       PRES   REMARKS
LA CROSSE      CLOUDY    16   1  51 N15G23    30.14R WCI   1
SPARTA         CLOUDY    14   6  71 N7        30.12S WCI   3
VIROQUA        CLOUDY    12   8  83 N16G22    30.05R WCI  -5
BOSCOBEL       LGT SNOW  14   7  73 NE13G18   30.09R WCI   0
PRAIRIE DU CHI MIX PCPN  15   8  73 N9G17     30.08R WCI   3
PLATTEVILLE    CLOUDY    11   8  85 N25G36    29.97S WCI  -9
$$

WIZ056-057-062-063-064-067-068-020200-
SOUTH CENTRAL WISCONSIN

CITY           SKY/WX    TMP DP  RH WIND       PRES   REMARKS
REEDSBURG      LGT SNOW  10   5  82 N12       30.07R WCI  -5
BARABOO/DELLS  LGT SNOW   9   4  80 N10       30.06R WCI  -5
LONE ROCK      LGT SNOW  12   4  70 NE18G24   30.07S WCI  -6
MINERAL POINT  LGT SNOW  12   7  79 N22G30    29.97S WCI  -7
MADISON        LGT SNOW   8   3  80 N23G32    30.01R VSB 3/4 WCI -13
MIDDLETON      CLOUDY    10   4  77 N22G35    30.02R WCI  -9
WATERTOWN      CLOUDY     8   5  86 N20G29    29.97S WCI -11
MONROE         LGT SNOW  10   9  92 N32G41    29.91S WCI -12
JANESVILLE     SNOW      12   9  85 N20G29    29.92R VSB 1/2 WCI  -6
$$

WIZ051-052-058>065-066-070>072-020200-
SOUTHEAST WISCONSIN

CITY           SKY/WX    TMP DP  RH WIND       PRES   REMARKS
MILWAUKEE      SNOW      20  17  88 NE24G35   29.91R VSB 1/4 WCI   3
WAUKESHA       LGT SNOW  16  12  86 NE12G35   29.93R VSB 3/4 WCI   3
MILWAUKEE/TIMM NOT AVBL
RACINE         SNOW      20  17  88 NE31G38   29.90R VSB 1/2 WCI   1
BURLINGTON     CLOUDY    18  16  90 N21G29    29.87S WCI   2
KENOSHA        HVY SNOW  20  17  88 NE23G36   29.86S VSB 1/4 WCI   3
FOND DU LAC    LGT SNOW   8   3  80 N25G35    30.06S WCI -13
SHEBOYGAN      HAZE       9   4  80 N16G28    30.00R VSB 1   WCI  -8
WEST BEND      LGT SNOW  10   5  79 N14G22    29.97R WCI  -5
JUNEAU         LGT SNOW   7   3  84 N25G32    30.00S VSB 3/4 WCI -15
$$

LSZ147-162-020200-
LAKE SUPERIOR

STATION/POSITION TIME  TEMP    WIND        PRES    WAVE
                       AIR SEA DIR/SP/G            HT/PER
                 (UTC) (F)     (DEG/KT/KT) (MB)    (FT/S)
DEVILS ISLAND    0000   11      10/  8/ 10 1027.3F
PORT WING        0000   10      70/  3/ 11 1025.7F
SAXON HARBOR     0000   13      30/ 13/ 16 1024.4S
$$

LMZ867-665-643>646-020200-
LAKE MICHIGAN

STATION/POSITION TIME  TEMP    WIND        PRES    WAVE
                       AIR SEA DIR/SP/G            HT/PER
                 (UTC) (F)     (DEG/KT/KT) (MB)    (FT/S)
NORTHPORT PIER   0000    9      10/ 15/ 23 1021.0
SISTER BAY       2313    8      10/ 16/ 24   N/A
KEWAUNEE LAKESHO 0000    9     360/ 14/ 26 1017.6R
SHEBOYGAN LAKESH 0000   19      20/ 36/ 42 1016.7R
PORT WASHINGTON  0040   13     340/ 10/ 19 1015.9R
MILWAUKEE LAKESH 2300   22      40/ 34/ 38   N/A
KENOSHA   LAKESH 0000   22      30/ 34/ 38 1011.2R
$$

TC  - TEMPERATURE IN CELSIUS
VSB - VISIBILITY IN STATUTE MILES
WCI - WIND CHILL INDEX
HX  - HEAT INDEX



USA.gov is the U.S. government's official web portal to all federal, state and local government web resources and services.